Date String (YYYY-MM-DD hh:mm:ss) UTC,Instrument flags,absolute air pressure of the measurement (hPa),sample flow rate (lpm),inlet stack bypass flow (lpm),air temperature of the measurement (°C),ambient temperature measured by the external sensor (°C),aerosol sample conditioner tube jacket temperature (°C),OPC LED temperature (°C),internal box temperature (°C),relative humidity of the measurement (%),span deviation,mass concentration of particles derived from Lorenz-Mie calculation of OPC scattering (μg/m³),mass concentration of particles derived from Lorenz-Mie calculation of OPC scattering (μg/m³),mass concentration of particles derived from Lorenz-Mie calculation of OPC scattering (μg/m³)
DateTimeUTC,F1_M11,P_M11,Q1_M11,Q2_M11,T1_M11,T2_M11,T3_M11,T4_M11,T5_M11,U1_M11,ZSPAN_M11,X0_M11,X2_M11,X1_M11
2024-04-20 18:00:00,SystemResetWarning,0834.8,5.00,000.00,020.6,020.1,000.0,028.9,022.4,021.0,0000.0,0006.65,0005.45,0005.41
2024-04-20 18:01:00,SystemResetWarning,0835.2,5.00,000.00,020.6,020.1,000.0,029.0,022.4,021.2,0000.0,0006.63,0005.44,0005.39
2024-04-20 18:02:00,SystemResetWarning,0834.8,5.00,000.00,020.6,020.1,000.0,029.0,022.4,021.5,0000.0,0006.64,0005.44,0005.37
2024-04-20 18:03:00,SystemResetWarning,0834.6,5.00,000.00,020.6,020.1,000.0,029.0,022.4,021.5,0000.0,0006.68,0005.44,0005.36
2024-04-20 18:04:00,SystemResetWarning,0834.7,5.00,000.00,020.6,020.1,000.0,029.0,022.4,021.3,0000.0,0006.67,0005.44,0005.36
2024-04-20 18:05:00,SystemResetWarning,0834.6,5.00,000.00,020.6,020.1,000.0,029.0,022.4,021.2,0000.0,0006.66,0005.43,0005.35
2024-04-20 18:06:00,SystemResetWarning,0834.6,4.99,000.00,020.6,020.1,000.0,029.0,022.4,021.3,0000.0,0006.57,0005.43,0005.35
2024-04-20 18:07:00,SystemResetWarning,0834.7,5.00,000.00,020.6,020.1,000.0,029.0,022.4,021.4,0000.0,0006.53,0005.42,0005.35
2024-04-20 18:08:00,SystemResetWarning,0834.7,5.00,000.00,020.6,020.1,000.0,029.0,022.4,021.1,0000.0,0006.64,0005.45,0005.38
2024-04-20 18:09:00,SystemResetWarning,0834.6,5.00,000.00,020.6,020.1,000.0,029.0,022.4,021.1,0000.0,0006.68,0005.47,0005.39
2024-04-20 18:10:00,SystemResetWarning,0834.6,4.99,000.00,020.6,020.1,000.0,029.0,022.4,021.3,0000.0,0006.74,0005.50,0005.42
2024-04-20 18:11:00,SystemResetWarning,0834.6,4.99,000.00,020.6,020.1,000.0,029.0,022.4,021.5,0000.0,0006.86,0005.54,0005.44
2024-04-20 18:12:00,SystemResetWarning,0834.7,4.99,000.00,020.6,020.1,000.0,029.0,022.4,021.7,0000.0,0006.94,0005.57,0005.46
2024-04-20 18:13:00,SystemResetWarning,0834.7,5.00,000.00,020.6,020.1,000.0,029.0,022.5,021.8,0000.0,0006.98,0005.58,0005.49
2024-04-20 18:14:00,SystemResetWarning,0835.1,5.01,000.00,020.6,020.1,000.0,029.0,022.4,021.7,0000.0,0007.07,0005.62,0005.53
2024-04-20 18:15:00,SystemResetWarning,0834.9,5.00,000.00,020.6,020.1,000.0,029.1,022.5,021.6,0000.0,0007.23,0005.68,0005.57
2024-04-20 18:16:00,SystemResetWarning,0834.6,5.01,000.00,020.6,020.1,000.0,029.1,022.5,021.7,0000.0,0007.32,0005.74,0005.62
2024-04-20 18:17:00,SystemResetWarning,0834.7,4.99,000.00,020.6,020.1,000.0,029.1,022.4,021.6,0000.0,0007.39,0005.80,0005.67
2024-04-20 18:18:00,SystemResetWarning,0834.7,4.99,000.00,020.6,020.1,000.0,029.1,022.5,021.6,0000.0,0007.45,0005.86,0005.72
2024-04-20 18:19:00,SystemResetWarning,0834.9,5.00,000.00,020.7,020.1,000.0,029.1,022.5,021.5,0000.0,0007.48,0005.90,0005.76
2024-04-20 18:20:00,SystemResetWarning,0834.9,5.00,000.00,020.7,020.1,000.0,029.1,022.5,021.3,0000.0,0007.56,0005.96,0005.82
2024-04-20 18:21:00,SystemResetWarning,0835.0,5.00,000.00,020.7,020.1,000.0,029.1,022.5,021.5,0000.0,0007.66,0006.03,0005.87
2024-04-20 18:22:00,SystemResetWarning,0835.1,5.00,000.00,020.7,020.1,000.0,029.1,022.5,021.7,0000.0,0007.68,0006.06,0005.91
2024-04-20 18:23:00,SystemResetWarning,0835.1,5.00,000.00,020.7,020.1,000.0,029.1,022.5,021.7,0000.0,0007.75,0006.10,0005.95
2024-04-20 18:24:00,SystemResetWarning,0835.2,5.00,000.00,020.7,020.1,000.0,029.1,022.5,021.7,0000.0,0007.81,0006.14,0005.99
2024-04-20 18:25:00,SystemResetWarning,0835.1,5.00,000.00,020.7,020.1,000.0,029.1,022.5,021.6,0000.0,0007.86,0006.18,0006.03
2024-04-20 18:26:00,SystemResetWarning,0835.1,5.00,000.00,020.7,020.1,000.0,029.1,022.5,021.6,0000.0,0007.88,0006.21,0006.06
2024-04-20 18:27:00,SystemResetWarning,0834.7,5.00,000.00,020.7,020.1,000.0,029.1,022.5,021.6,0000.0,0007.96,0006.25,0006.09
2024-04-20 18:28:00,SystemResetWarning,0834.8,5.00,000.00,020.7,020.1,000.0,029.1,022.5,021.6,0000.0,0007.95,0006.24,0006.09
2024-04-20 18:29:00,SystemResetWarning,0834.9,5.00,000.00,020.7,020.1,000.0,029.1,022.5,021.5,0000.0,0007.97,0006.26,0006.11
2024-04-20 18:30:00,SystemResetWarning,0835.0,5.00,000.00,020.7,020.1,000.0,029.1,022.5,021.5,0000.0,0007.95,0006.26,0006.12
2024-04-20 18:31:00,SystemResetWarning,0834.8,5.00,000.00,020.7,020.1,000.0,029.1,022.5,021.5,0000.0,0007.93,0006.25,0006.12
2024-04-20 18:32:00,SystemResetWarning,0835.0,5.00,000.00,020.7,020.1,000.0,029.1,022.5,021.6,0000.0,0007.90,0006.24,0006.11
2024-04-20 18:33:00,SystemResetWarning,0834.6,5.00,000.00,020.7,020.2,000.0,029.1,022.5,021.4,0000.0,0007.95,0006.24,0006.12
2024-04-20 18:34:00,SystemResetWarning,0834.8,5.00,000.00,020.7,020.2,000.0,029.1,022.5,021.1,0000.0,0007.96,0006.25,0006.12
2024-04-20 18:35:00,SystemResetWarning,0834.7,5.00,000.00,020.7,020.2,000.0,029.1,022.5,021.2,0000.0,0007.94,0006.25,0006.11
2024-04-20 18:36:00,SystemResetWarning,0834.8,5.00,000.00,020.7,020.2,000.0,029.1,022.5,021.4,0000.0,0007.91,0006.24,0006.12
2024-04-20 18:37:00,SystemResetWarning,0834.6,5.00,000.00,020.7,020.2,000.0,029.2,022.5,021.3,0000.0,0007.87,0006.22,0006.10
2024-04-20 18:38:00,SystemResetWarning,0834.6,4.99,000.00,020.7,020.2,000.0,029.2,022.5,021.1,0000.0,0007.82,0006.19,0006.09
2024-04-20 18:39:00,SystemResetWarning,0834.6,4.99,000.00,020.7,020.2,000.0,029.2,022.5,021.1,0000.0,0007.82,0006.19,0006.09
2024-04-20 18:40:00,SystemResetWarning,0835.1,5.00,000.00,020.7,020.2,000.0,029.2,022.5,021.2,0000.0,0007.81,0006.17,0006.08
2024-04-20 18:41:00,SystemResetWarning,0835.2,5.01,000.00,020.7,020.2,000.0,029.2,022.6,021.4,0000.0,0007.83,0006.17,0006.07
2024-04-20 18:42:00,SystemResetWarning,0835.1,5.00,000.00,020.7,020.2,000.0,029.2,022.5,021.5,0000.0,0007.89,0006.19,0006.08
2024-04-20 18:43:00,SystemResetWarning,0835.1,5.00,000.00,020.7,020.2,000.0,029.2,022.5,021.5,0000.0,0007.91,0006.20,0006.08
2024-04-20 18:44:00,SystemResetWarning,0835.2,4.99,000.00,020.7,020.2,000.0,029.2,022.5,021.4,0000.0,0007.85,0006.20,0006.08
2024-04-20 18:45:00,SystemResetWarning,0834.7,5.00,000.00,020.7,020.2,000.0,029.2,022.5,021.4,0000.0,0007.83,0006.20,0006.09
2024-04-20 18:46:00,SystemResetWarning,0834.7,5.01,000.00,020.7,020.2,000.0,029.2,022.5,021.5,0000.0,0007.85,0006.21,0006.10
2024-04-20 18:47:00,SystemResetWarning,0834.8,5.01,000.00,020.7,020.1,000.0,029.2,022.5,021.7,0000.0,0007.93,0006.23,0006.11
2024-04-20 18:48:00,SystemResetWarning,0835.4,4.99,000.00,020.7,020.1,000.0,029.2,022.5,021.7,0000.0,0008.04,0006.27,0006.12
2024-04-20 18:49:00,SystemResetWarning,0835.3,4.99,000.00,020.7,020.1,000.0,029.2,022.5,021.7,0000.0,0008.11,0006.29,0006.12
2024-04-20 18:50:00,SystemResetWarning,0835.4,5.00,000.00,020.7,020.1,000.0,029.2,022.5,021.5,0000.0,0008.12,0006.30,0006.12
2024-04-20 18:51:00,SystemResetWarning,0834.9,5.01,000.00,020.7,020.1,000.0,029.2,022.5,021.3,0000.0,0008.14,0006.31,0006.13
2024-04-20 18:52:00,SystemResetWarning,0834.7,5.01,000.00,020.7,020.1,000.0,029.2,022.5,021.3,0000.0,0008.17,0006.33,0006.14
2024-04-20 18:53:00,SystemResetWarning,0835.1,5.00,000.00,020.7,020.1,000.0,029.2,022.5,021.4,0000.0,0008.16,0006.29,0006.11
2024-04-20 18:54:00,SystemResetWarning,0835.3,5.00,000.00,020.7,020.1,000.0,029.2,022.5,021.4,0000.0,0008.33,0006.19,0006.00
2024-04-20 18:55:00,SystemResetWarning,0835.4,5.00,000.00,020.7,020.1,000.0,029.2,022.5,021.3,0000.0,0008.23,0006.06,0005.86
2024-04-20 18:56:00,SystemResetWarning,0835.3,5.00,000.00,020.7,020.1,000.0,029.2,022.5,021.2,0000.0,0008.09,0005.91,0005.73
2024-04-20 18:57:00,SystemResetWarning,0835.4,5.00,000.00,020.7,020.0,000.0,029.2,022.5,021.2,0000.0,0007.95,0005.74,0005.56
2024-04-20 18:58:00,SystemResetWarning,0835.2,5.00,000.00,020.7,020.0,000.0,029.2,022.5,021.3,0000.0,0007.81,0005.58,0005.40
2024-04-20 18:59:00,SystemResetWarning,0834.9,5.00,000.00,020.7,020.0,000.0,029.2,022.5,021.2,0000.0,0007.60,0005.40,0005.25
